Tracking 27122 objects as of 25-Mar-2023
HD Live streaming from Space Station
objects crossing your sky now

STARLINK-4017

Track STARLINK-4017 now!
10-day predictions
STARLINK-4017 is classified as:


NORAD ID: 52682
Int'l Code: 2022-053AC
Perigee: 545.9 km
Apogee: 547.6 km
Inclination: 53.2 °
Period: 95.4 minutes
Semi major axis: 6917 km
RCS: Unknown
Launch date: May 18, 2022
Source: United States (US)
Launch site: AIR FORCE EASTERN TEST RANGE (AFETR)
Your satellite tracking list
Your tracking list is empty




NASA's NSSDC Master Catalog

Two Line Element Set (TLE):
1 52682U 22053AC  23083.84920560  .00023090  00000-0  14621-2 0  9995
2 52682  53.2146 316.2041 0001259  72.8503 287.2627 15.08891025 47571
Source of the keplerian elements: AFSPC